#timestamp,LO_Frequency,Hit,StdDev 
1608577375.8,286046998.5,P
1608577395.7,286046999.8,N
1608577415.5,286046998.2,N
1608577435.4,286046999.1,N
1608577455.2,286046996.6,Y
1608577475.0,286046999.0,P
1608577475.9,286046999.0,P
1608577525.8,286047001.0,E
1608577535.7,286046998.5,N
1608577555.6,286047000.0,P
1608577575.4,286047000.5,N
1608577595.2,286047002.4,N
1608577615.1,286046998.2,N
1608577616.0,286046998.2,N
1608577635.8,286046998.1,N
1608577655.7,286046998.6,N
1608577675.5,286046994.9,Y
1608577695.3,286046996.3,P
1608577715.2,286046994.1,P
1608577735.0,286046996.1,N
1608577735.9,286046996.1,N
1608577755.7,286046995.2,N
1608577775.6,286046995.1,Y
1608577795.4,286047002.6,P
1608577815.3,286047001.4,N
1608577835.1,286047002.5,N
1608577836.0,286047002.5,N
1608577855.8,286047000.9,N
1608577875.7,286047001.1,N
1608577895.5,286046998.6,N
1608577915.3,286046997.4,N
1608577935.2,286046997.5,N
1608577955.0,286046995.3,N
1608577955.9,286046995.3,N
1608577975.8,286046995.4,N
1608577995.6,286046994.9,N
1608578015.4,286046995.7,N
1608578035.3,286046995.6,N
1608578055.1,286046993.7,N
1608578075.8,286046994.3,N
1608578095.7,286046994.0,N
1608578115.5,286046993.4,N
1608578135.4,286046993.6,N
1608578155.2,286046995.6,N
1608578175.0,286046994.0,N
1608578175.9,286046994.0,N
1608578195.8,286046992.1,N
1608578215.6,286046994.0,N
1608578235.4,286046995.5,N
1608578255.3,286046995.3,N
1608578275.1,286046997.3,N
1608578295.9,286046996.8,N
1608578315.7,286046997.1,N
1608578335.5,286046999.4,N
1608578355.4,286046998.2,N
1608578375.2,286046998.5,N
1608578395.0,286046997.0,N
1608578395.9,286046997.0,N
1608578415.8,286046995.2,N
1608578435.6,286046995.7,N
1608578455.5,286046993.8,Y
1608578475.3,286047001.1,P
1608578495.1,286046998.2,N
1608578515.9,286046999.1,N
1608578535.7,286046998.3,N
1608578555.6,286046999.1,N
1608578575.4,286046998.1,N
1608578595.2,286047002.8,N
1608578615.1,286046999.9,N
1608578616.0,286046999.9,N
1608578635.8,286047000.7,N
1608578655.6,286046999.6,N
1608578675.5,286046996.7,N
1608578695.3,286046997.6,N
1608578715.2,286046998.0,N
1608578735.9,286046997.6,N
1608578755.7,286046997.7,N
1608578775.6,286047000.0,N
1608578795.4,286047000.3,N
1608578815.2,286047001.0,N
1608578835.1,286047002.6,N
1608578836.0,286047002.6,N
1608578855.8,286047002.5,N
1608578875.6,286047002.4,N
1608578895.5,286047000.9,N
1608578915.3,286047002.1,N
1608578935.2,286046999.7,N
1608578955.9,286046998.2,N
1608578975.7,286047002.8,N
1608578995.6,286046999.8,N
1608579015.4,286047002.6,N
1608579035.2,286046999.0,N
1608579055.1,286046998.2,N
1608579056.0,286046998.2,N
1608579075.8,286047001.0,N
1608579095.7,286046996.6,N
1608579115.5,286046999.3,N
1608579135.3,286046999.0,N
1608579155.2,286046999.2,N
1608579175.0,286046996.7,N
1608579175.9,286046996.7,N
1608579195.7,286046997.4,N
1608579215.6,286046997.3,N
1608579235.4,286046997.4,N
1608579255.3,286046995.1,N
1608579275.1,286046995.1,N
1608579295.8,286046997.7,N
1608579315.7,286046996.8,N
1608579335.5,286046997.1,N
1608579355.4,286046999.4,N
1608579375.2,286046999.6,N
1608579395.0,286046996.8,N
1608579395.9,286046996.8,N
1608579415.8,286046996.5,N
1608579435.6,286046996.9,N
1608579455.5,286046996.5,N
1608579475.3,286047000.6,N
1608579495.1,286046998.2,N
1608579515.9,286046998.7,N
1608579535.7,286047000.5,N
1608579555.5,286047000.9,N
1608579575.4,286047001.1,N
1608579595.2,286047000.8,N
1608579615.1,286046998.6,N
1608579616.0,286046998.6,N
1608579635.8,286046998.6,N
1608579655.6,286046998.8,N
1608579675.5,286046998.6,N
1608579695.3,286046996.5,N
1608579715.1,286046997.9,N
1608579735.9,286046997.3,N
1608579755.7,286046997.1,N
1608579775.6,286046999.4,N
1608579795.4,286047000.9,N
1608579815.2,286047000.8,N
1608579835.1,286047000.5,N
1608579836.0,286047000.5,N
1608579855.8,286047000.8,N
1608579875.6,286047000.5,N
1608579895.5,286046999.0,N
1608579915.3,286046996.9,N
1608579935.2,286046999.2,N
1608579955.9,286046997.0,N
1608579975.7,286046997.4,N
1608579995.6,286046999.6,N
1608580015.4,286046999.3,N
1608580035.2,286046999.4,N
1608580055.1,286046998.1,N
1608580056.0,286046998.1,N
1608580075.8,286047000.4,N
1608580095